[[{"header":{"parameterUnit":"m.s-1","parameterCategory":1,"la1":30.2991,"la2":30.254,"lo1":-89.0895,"lo2":-89.0444,"dy":0.0017,"dx":0.0017,"nx":28,"ny":28,"refTime":"2025-03-11T21:00:00:Z","depth":0,"parameterNumber":2,"parameterNumberName":"U-component_of_WINDS"},"data":[0,0,0,0,0,0,0,0,0,0,0,0,0,0,0,0,0,0,0,0,0,0,0,0,0,0,0,0,0,0,0,0,0,0,0,0,0,0,0,0,0,0,0,0,0,0,0,0,0,0,0,0,0,0,0,0,0,0,0.2925,0.2927,0,0.3104,0.3106,0.3108,0.3187,0.3187,0.3187,0.3187,0.3372,0.3377,0.3382,0,0,0,0,0,0,0,0,0,0,0,0,0,0.2653,0.2658,0.2925,0.2927,0.293,0.3104,0.3107,0.3109,0.3187,0.3187,0.3187,0.3187,0.337,0.3376,0.3383,0,0,0,0,0,0,0,0,0,0,0,0,0,0.2796,0.2659,0.2925,0.299,0.2997,0.3104,0.3107,0.311,0.3188,0.3187,0.3187,0.3186,0.3368,0.3376,0.3384,0.3439,0,0,0.3407,0.3411,0,0,0,0,0,0,0,0,0.2788,0.2806,0.2978,0.2985,0.2994,0.3123,0.3079,0.322,0.3188,0.3115,0.3187,0.3186,0.329,0.3304,0.3338,0.3448,0.3456,0.3408,0.3413,0.3416,0.3418,0,0,0,0,0,0,0,0.2778,0.2798,0.2996,0.298,0.299,0.3011,0.3031,0.3106,0.3203,0.3122,0.3128,0.3148,0.3294,0.3331,0.3343,0.3458,0.3408,0.3415,0.3419,0.3422,0.3624,0.3625,0,0,0,0,0,0,0.2757,0.279,0.299,0.3002,0.2888,0.3016,0.3038,0.3082,0.3202,0.322,0.3148,0.3151,0.3318,0.3334,0.335,0.3424,0.3416,0.3423,0.3428,0.3624,0.3624,0.3625,0,0,0,0,0,0,0.2751,0.2774,0.2983,0.2897,0.2926,0.3021,0.307,0.3086,0.3123,0.3222,0.324,0.3167,0.3318,0.3339,0.3417,0.3432,0.3427,0.3434,0.3623,0.3624,0.3625,0.3572,0,0,0,0,0,0,0.2742,0.2771,0.2793,0.2897,0.293,0.3046,0.3071,0.309,0.3136,0.3141,0.3245,0.3262,0.3319,0.3405,0.3424,0.3442,0.344,0.3622,0.3623,0.3624,0.3573,0.3571,0.3569,0,0,0,0,0,0.2732,0.2771,0.2793,0.2817,0.2958,0.3046,0.3065,0.313,0.3136,0.3159,0.3223,0.3258,0.3427,0.3412,0.3435,0.3455,0.3621,0.3623,0.3624,0.3573,0.3571,0.3569,0,0,0,0,0,0,0.2666,0.2786,0.2812,0.2885,0.2955,0.3059,0.309,0.3126,0.3196,0.3198,0.3276,0.3299,0.337,0.342,0.3402,0.3516,0.3527,0.3533,0.348,0.3479,0.3478,0.3464,0.3446,0,0,0,0,0,0.2659,0.272,0.2822,0.2877,0.291,0.2994,0.3035,0.3079,0.3154,0.3185,0.3254,0.3327,0.3397,0.3441,0.351,0.358,0.3605,0.3606,0.3604,0.3602,0.3607,0.3649,0.3651,0.363,0.363,0.363,0,0,0.2647,0.272,0.2754,0.2865,0.2924,0.2986,0.3018,0.3082,0.313,0.3195,0.3272,0.3326,0.3412,0.3486,0.3523,0.3531,0.3618,0.3604,0.3602,0.3608,0.3651,0.3653,0.3655,0.3631,0.3631,0.3631,0,0,0.2657,0.2718,0.2771,0.2829,0.2919,0.2974,0.2987,0.3087,0.3125,0.3203,0.3254,0.3311,0.3429,0.3489,0.3535,0.3568,0.3603,0.3588,0.358,0.362,0.3622,0.3624,0.3637,0.3641,0.3593,0.3592,0.3592,0,0.2631,0.2725,0.2793,0.2855,0.2903,0.2964,0.3019,0.3073,0.318,0.3213,0.322,0.337,0.3432,0.3522,0.353,0.3565,0.3582,0.3577,0.3616,0.3619,0.3622,0.3635,0.3639,0.359,0.359,0.3591,0.3591,0,0.2689,0.2754,0.2786,0.2889,0.294,0.2998,0.3075,0.3119,0.3159,0.3214,0.3294,0.3371,0.3458,0.3482,0.3522,0.3578,0.3581,0.3601,0.3614,0.362,0.3634,0.364,0.3587,0.3588,0.3588,0.3589,0,0,0.2662,0.2801,0.2812,0.2859,0.2963,0.3015,0.3076,0.316,0.3197,0.3269,0.3323,0.3422,0.3442,0.3493,0.354,0.3575,0.3598,0.3592,0.3595,0.3591,0.3667,0.3651,0.3656,0.3622,0.3623,0.3624,0.366,0,0.2686,0.2798,0.2861,0.2947,0.3009,0.3068,0.3122,0.3191,0.3244,0.3305,0.3364,0.3433,0.3453,0.3485,0.3523,0.3587,0.3614,0.3585,0.3674,0.3676,0.3651,0.3663,0.3647,0.3677,0.3665,0.3666,0.3667,0,0.273,0.2801,0.2892,0.299,0.3018,0.3065,0.3148,0.3205,0.3286,0.3322,0.338,0.3427,0.3495,0.3501,0.3597,0.3575,0.3616,0.3653,0.3655,0.3667,0.3673,0.3676,0.3688,0.3692,0.3676,0.3675,0.3675,0,0.2702,0.282,0.2891,0.293,0.3045,0.3076,0.3126,0.3206,0.3253,0.3326,0.3358,0.3437,0.3481,0.3542,0.3609,0.3608,0.3698,0.371,0.3731,0.373,0.3748,0.3746,0.3768,0.3772,0.3772,0.3772,0.3772,0,0.2723,0.2777,0.288,0.2923,0.2986,0.3059,0.3119,0.3173,0.3245,0.33,0.3357,0.3408,0.3493,0.3556,0.3609,0.368,0.3699,0.3732,0.3745,0.3727,0.3723,0.3755,0.3755,0.3773,0.3773,0.3773,0.3773,0,0.2702,0.2773,0.2854,0.2957,0.2984,0.3026,0.3114,0.3159,0.3215,0.3285,0.3306,0.3394,0.3471,0.3544,0.3646,0.3682,0.3754,0.3771,0.3726,0.3734,0.3751,0.3749,0.3795,0.3805,0.3801,0.3801,0.3801,0,0.2711,0.2755,0.2862,0.2903,0.2951,0.3017,0.3065,0.3139,0.3187,0.3283,0.3316,0.3397,0.3465,0.3584,0.3658,0.3737,0.3757,0.3768,0.377,0.375,0.3759,0.3756,0.3761,0.3766,0.3766,0.3766,0.3765,0,0.2721,0.2754,0.2821,0.2901,0.2957,0.3023,0.3092,0.3123,0.3209,0.3261,0.3339,0.3392,0.3496,0.3576,0.3663,0.3716,0.3756,0.3764,0.3774,0.3756,0.3729,0.3745,0.3723,0.3763,0.3763,0.3763,0.3764,0.3764,0.2716,0.2758,0.284,0.2913,0.2973,0.3035,0.3083,0.3145,0.3212,0.3302,0.3342,0.3421,0.3502,0.3624,0.3675,0.374,0.3749,0.3762,0.3766,0.3768,0.3765,0.3717,0.3756,0.3756,0.3756,0.3756,0.3756,0,0.2729,0.2785,0.2852,0.2946,0.3004,0.3036,0.3113,0.316,0.3229,0.3301,0.3367,0.3458,0.3536,0.3616,0.3698,0.3734,0.3754,0.3753,0.3752,0.3764,0.3751,0.3735,0.3735,0.3735,0.3735,0.3735,0.3735,0.3735,0.2743,0.2815,0.2858,0.2961,0.3017,0.3095,0.3137,0.3196,0.3254,0.3352,0.3417,0.3468,0.3544,0.3633,0.3706,0.3727,0.3756,0.3749,0.3776,0.3763,0.3764,0.3765,0.3751,0.3755,0.3755,0.3784,0.3784,0.3784]},{"header":{"parameterUnit":"m.s-1","parameterCategory":1,"la1":30.2991,"la2":30.254,"lo1":-89.0895,"lo2":-89.0444,"dy":0.0017,"dx":0.0017,"nx":28,"ny":28,"refTime":"2025-03-11T21:00:00:Z","depth":0,"parameterNumber":3,"parameterNumberName":"V-component_of_WINDS"},"data":[0,0,0,0,0,0,0,0,0,0,0,0,0,0,0,0,0,0,0,0,0,0,0,0,0,0,0,0,0,0,0,0,0,0,0,0,0,0,0,0,0,0,0,0,0,0,0,0,0,0,0,0,0,0,0,0,0,0,3.4184,3.4184,0,3.4192,3.4192,3.4192,3.4145,3.4143,3.4142,3.4141,3.4148,3.4149,3.4151,0,0,0,0,0,0,0,0,0,0,0,0,0,3.4125,3.4127,3.4184,3.4184,3.4184,3.4192,3.4192,3.4192,3.4145,3.4143,3.4142,3.414,3.4147,3.4149,3.4151,0,0,0,0,0,0,0,0,0,0,0,0,0,3.4144,3.4127,3.4184,3.4161,3.416,3.4192,3.4192,3.4192,3.4145,3.4143,3.4141,3.4139,3.4147,3.4149,3.4151,3.4205,0,0,3.4158,3.4159,0,0,0,0,0,0,0,0,3.4143,3.4146,3.4165,3.4163,3.4161,3.4165,3.4174,3.4197,3.4146,3.4151,3.4141,3.4138,3.4155,3.4157,3.4162,3.4205,3.4206,3.4158,3.4159,3.416,3.4161,0,0,0,0,0,0,0,3.4142,3.4145,3.4187,3.4165,3.4163,3.415,3.4151,3.4178,3.4164,3.415,3.4147,3.4148,3.4154,3.416,3.4162,3.4206,3.4158,3.416,3.4161,3.4162,3.4294,3.4296,0,0,0,0,0,0,3.4144,3.4145,3.4187,3.4187,3.4147,3.4153,3.4154,3.4166,3.4164,3.4161,3.415,3.4146,3.4158,3.416,3.4162,3.4226,3.416,3.4162,3.4163,3.4292,3.4294,3.4297,0,0,0,0,0,0,3.4143,3.4148,3.4187,3.4165,3.4169,3.4156,3.4171,3.4167,3.4174,3.4164,3.4161,3.416,3.4156,3.4159,3.4195,3.4226,3.4163,3.4165,3.4289,3.4292,3.4295,3.4354,0,0,0,0,0,0,3.4141,3.4148,3.4169,3.4166,3.417,3.422,3.4172,3.4169,3.4178,3.4173,3.4172,3.417,3.4155,3.4192,3.4197,3.4228,3.4167,3.4286,3.4291,3.4294,3.4349,3.4359,3.4367,0,0,0,0,0,3.4139,3.4185,3.417,3.4175,3.4197,3.4222,3.4224,3.4206,3.4181,3.4201,3.4195,3.417,3.4221,3.4196,3.4201,3.4233,3.4284,3.4289,3.4294,3.4345,3.4357,3.4367,0,0,0,0,0,0,3.4191,3.4184,3.4168,3.4214,3.4219,3.4214,3.4239,3.4219,3.4231,3.4226,3.4203,3.4203,3.4243,3.4241,3.4213,3.4285,3.4248,3.4254,3.4285,3.4296,3.4305,3.4305,3.4169,0,0,0,0,0,3.4208,3.4229,3.4222,3.4263,3.4266,3.4252,3.4263,3.4248,3.4253,3.4254,3.425,3.4255,3.4272,3.4284,3.4299,3.4348,3.4348,3.4373,3.4382,3.4389,3.4395,3.4421,3.4433,3.4313,3.4313,3.4313,0,0,3.4243,3.4241,3.4256,3.4273,3.4275,3.4298,3.4255,3.428,3.4297,3.4258,3.4292,3.4289,3.4292,3.4336,3.4354,3.4335,3.4428,3.4395,3.4401,3.4403,3.4428,3.4439,3.4449,3.4316,3.4316,3.4315,0,0,3.4318,3.4319,3.4354,3.4357,3.4361,3.4351,3.436,3.4358,3.4354,3.4388,3.436,3.4378,3.4408,3.4412,3.4418,3.4494,3.4472,3.45,3.4547,3.4573,3.4582,3.459,3.4618,3.4629,3.4505,3.4506,3.4506,0,3.4361,3.4394,3.4374,3.4402,3.441,3.4376,3.4411,3.4415,3.4424,3.443,3.4408,3.4446,3.4445,3.4489,3.4508,3.4513,3.4522,3.45,3.4582,3.4591,3.4598,3.4624,3.4635,3.4509,3.4509,3.4508,3.4508,0,3.4447,3.447,3.4498,3.4508,3.4519,3.455,3.4534,3.4548,3.4532,3.4525,3.4559,3.4558,3.4572,3.4581,3.4566,3.4623,3.4611,3.4586,3.4549,3.4613,3.4638,3.4648,3.4514,3.4513,3.4512,3.4511,0,0,3.4556,3.4554,3.4565,3.4569,3.4571,3.4588,3.4617,3.4632,3.4644,3.4651,3.4675,3.4701,3.4678,3.4685,3.467,3.4692,3.4754,3.4665,3.4665,3.4682,3.4817,3.4836,3.4849,3.4739,3.474,3.4742,3.4817,0,3.4631,3.4682,3.4664,3.4716,3.4737,3.4705,3.473,3.4734,3.4728,3.4744,3.4737,3.4756,3.4724,3.4728,3.4749,3.4742,3.4781,3.4736,3.4761,3.4762,3.4763,3.4861,3.4882,3.4953,3.4826,3.4828,3.4829,0,3.4725,3.4736,3.479,3.4788,3.4797,3.482,3.4832,3.4848,3.4851,3.4845,3.4853,3.4832,3.486,3.4822,3.4861,3.4831,3.484,3.4838,3.484,3.4843,3.4801,3.4868,3.4975,3.4986,3.4844,3.4843,3.4841,0,3.4801,3.4829,3.4865,3.487,3.4868,3.4885,3.4885,3.4886,3.4896,3.4906,3.4912,3.4925,3.4932,3.4943,3.4927,3.49,3.4968,3.4928,3.4964,3.4964,3.498,3.498,3.5092,3.4984,3.4984,3.4984,3.4984,0,3.4887,3.4921,3.4899,3.4922,3.4959,3.4938,3.4976,3.4972,3.4973,3.4994,3.4966,3.4986,3.4963,3.498,3.4968,3.5002,3.5005,3.5001,3.4997,3.5004,3.5005,3.5011,3.5006,3.4987,3.4986,3.4986,3.4985,0,3.4979,3.4965,3.5003,3.4998,3.4997,3.5025,3.5021,3.5041,3.5032,3.5059,3.5064,3.505,3.5069,3.5054,3.5073,3.5064,3.511,3.5098,3.5109,3.5107,3.5144,3.5141,3.5265,3.528,3.5161,3.5162,3.5163,0,3.5035,3.5061,3.5059,3.5071,3.5073,3.5093,3.5103,3.5082,3.5094,3.5099,3.5119,3.5136,3.5148,3.5181,3.5172,3.5186,3.5176,3.5218,3.5178,3.5184,3.5178,3.5177,3.518,3.5227,3.5228,3.5229,3.523,0,3.5137,3.5129,3.5145,3.5158,3.5171,3.518,3.5188,3.5199,3.5178,3.5192,3.5212,3.5222,3.5241,3.5258,3.5269,3.5269,3.5247,3.5243,3.5252,3.526,3.5266,3.5264,3.5133,3.5241,3.524,3.5239,3.5238,3.5238,3.5214,3.5235,3.5237,3.5256,3.5259,3.5266,3.5285,3.5279,3.5295,3.5309,3.5296,3.532,3.5321,3.5334,3.5336,3.5355,3.5337,3.535,3.5354,3.5358,3.5363,3.5262,3.5356,3.5356,3.5356,3.5355,3.5355,0,3.5315,3.5315,3.5332,3.5343,3.5357,3.5335,3.5341,3.5355,3.5376,3.538,3.5393,3.5416,3.5432,3.5425,3.5439,3.5455,3.5445,3.546,3.5459,3.5459,3.5378,3.5369,3.5467,3.5467,3.5467,3.5467,3.5467,3.5467,3.537,3.5406,3.5398,3.5434,3.5433,3.5457,3.5463,3.5469,3.5472,3.5499,3.5513,3.5507,3.5507,3.5521,3.5535,3.5532,3.5539,3.5558,3.5552,3.5476,3.5465,3.5454,3.5446,3.5559,3.5559,3.5632,3.5632,3.5633]}]]